When you browse on this site, cookies collect data to enhance your experience and personalize the content and advertising you see.
Visit our Privacy Policy to learn more. By continuing to use the site, you agree to this use of cookies and data.
  • In Schweiz
  • Länderverzeichnis
  • Für 7 Tage
  • Wassertemperatur
  • Wetterkarte
  • Widgets
  • user-avatar
    Anmelden

    Stündliche Wetter Reims

    Heute, 5 Juni, Freitag

    Zeit Temperatur Niederschläge Wind Luftdruck Luftfeuchtigkeit
    00:00 +9°C° 0 mm 2 m/S 743 mmHg 93%
    01:00 +9°C° 0 mm 2 m/S 743 mmHg 93%
    02:00 +9°C° 0 mm 2 m/S 742 mmHg 93%
    03:00 +9°C° 0 mm 3 m/S 742 mmHg 93%
    04:00 +9°C° 0 mm 3 m/S 742 mmHg 91%
    05:00 +10°C° 0 mm 4 m/S 742 mmHg 90%
    06:00 +9°C° 0 mm 5 m/S 742 mmHg 89%
    07:00 +9°C° 0.3 mm 6 m/S 741 mmHg 90%
    08:00 +9°C° 0.3 mm 7 m/S 741 mmHg 92%
    09:00 +9°C° 0.3 mm 8 m/S 740 mmHg 94%
    10:00 +10°C° 0.4 mm 7 m/S 740 mmHg 93%
    11:00 +10°C° 0.4 mm 7 m/S 740 mmHg 93%
    12:00 +11°C° 0.4 mm 7 m/S 740 mmHg 93%
    13:00 +12°C° 0.4 mm 8 m/S 740 mmHg 85%
    14:00 +13°C° 0.4 mm 8 m/S 740 mmHg 78%
    15:00 +15°C° 0.4 mm 9 m/S 740 mmHg 71%
    16:00 +13°C° 0.2 mm 8 m/S 741 mmHg 73%
    17:00 +14°C° 0.2 mm 6 m/S 741 mmHg 74%
    18:00 +13°C° 0.2 mm 5 m/S 742 mmHg 76%
    19:00 +10°C° 0 mm 5 m/S 742 mmHg 79%
    20:00 +10°C° 0 mm 4 m/S 743 mmHg 82%
    21:00 +9°C° 0 mm 3 m/S 743 mmHg 85%
    22:00 +9°C° 0.1 mm 3 m/S 743 mmHg 87%
    23:00 +9°C° 0.1 mm 3 m/S 743 mmHg 89%

    Morgen, 6 Juni, Samstag

    Zeit Temperatur Niederschläge Wind Luftdruck Luftfeuchtigkeit
    00:00 +10°C° 0.1 mm 3 m/S 743 mmHg 91%
    01:00 +10°C° 0.4 mm 3 m/S 743 mmHg 93%
    02:00 +10°C° 0.4 mm 3 m/S 743 mmHg 95%
    03:00 +10°C° 0.4 mm 3 m/S 743 mmHg 96%
    04:00 +10°C° 0.1 mm 4 m/S 743 mmHg 95%
    05:00 +10°C° 0.1 mm 4 m/S 743 mmHg 93%
    06:00 +10°C° 0.1 mm 4 m/S 743 mmHg 91%
    07:00 +10°C° 0.1 mm 5 m/S 743 mmHg 85%
    08:00 +11°C° 0.1 mm 6 m/S 744 mmHg 79%
    09:00 +14°C° 0.1 mm 7 m/S 744 mmHg 73%
    10:00 +14°C° 0.1 mm 7 m/S 744 mmHg 68%
    11:00 +15°C° 0.1 mm 7 m/S 744 mmHg 63%
    12:00 +15°C° 0.1 mm 7 m/S 744 mmHg 58%
    13:00 +15°C° 0 mm 7 m/S 745 mmHg 59%
    14:00 +15°C° 0 mm 6 m/S 745 mmHg 60%
    15:00 +15°C° 0 mm 6 m/S 745 mmHg 61%
    16:00 +14°C° 0 mm 5 m/S 745 mmHg 65%
    17:00 +14°C° 0 mm 4 m/S 745 mmHg 69%
    18:00 +13°C° 0 mm 3 m/S 745 mmHg 73%
    19:00 +12°C° 0 mm 3 m/S 745 mmHg 76%
    20:00 +10°C° 0 mm 3 m/S 746 mmHg 78%
    21:00 +8°C° 0 mm 3 m/S 746 mmHg 81%
    22:00 +8°C° 0 mm 3 m/S 746 mmHg 81%
    23:00 +7°C° 0 mm 3 m/S 746 mmHg 81%

    übermorgen, 7 Juni, Sonntag

    Zeit Temperatur Niederschläge Wind Luftdruck Luftfeuchtigkeit
    00:00 +6°C° 0 mm 4 m/S 746 mmHg 82%
    01:00 +6°C° 0.1 mm 4 m/S 746 mmHg 83%
    02:00 +7°C° 0.1 mm 4 m/S 746 mmHg 85%
    03:00 +7°C° 0.1 mm 4 m/S 747 mmHg 86%
    04:00 +8°C° 0 mm 4 m/S 747 mmHg 87%
    05:00 +8°C° 0 mm 4 m/S 747 mmHg 87%
    06:00 +9°C° 0 mm 5 m/S 748 mmHg 88%
    07:00 +11°C° 0.1 mm 4 m/S 748 mmHg 84%
    08:00 +12°C° 0.1 mm 4 m/S 748 mmHg 81%
    09:00 +14°C° 0.1 mm 4 m/S 749 mmHg 77%
    10:00 +15°C° 0.2 mm 4 m/S 749 mmHg 74%
    11:00 +17°C° 0.2 mm 3 m/S 749 mmHg 71%
    12:00 +17°C° 0.2 mm 3 m/S 749 mmHg 68%
    13:00 +18°C° 0.2 mm 2 m/S 749 mmHg 67%
    14:00 +18°C° 0.2 mm 2 m/S 749 mmHg 66%
    15:00 +19°C° 0.2 mm 1 m/S 749 mmHg 64%
    16:00 +19°C° 0.2 mm 1 m/S 749 mmHg 68%
    17:00 +19°C° 0.2 mm 1 m/S 749 mmHg 72%
    18:00 +18°C° 0.2 mm 1 m/S 749 mmHg 76%
    19:00 +14°C° 0.2 mm 0 m/S 749 mmHg 79%
    20:00 +13°C° 0.2 mm 0 m/S 750 mmHg 82%
    21:00 +11°C° 0.2 mm 0 m/S 750 mmHg 85%
    22:00 +10°C° 0 mm 0 m/S 750 mmHg 85%
    23:00 +10°C° 0 mm 0 m/S 750 mmHg 86%

    8 Juni, Montag

    Zeit Temperatur Niederschläge Wind Luftdruck Luftfeuchtigkeit
    00:00 +9°C° 0 mm 0 m/S 750 mmHg 86%
    01:00 +9°C° 0 mm 0 m/S 750 mmHg 87%
    02:00 +10°C° 0 mm 1 m/S 751 mmHg 88%
    03:00 +10°C° 0 mm 1 m/S 751 mmHg 88%
    04:00 +11°C° 0 mm 1 m/S 751 mmHg 88%
    05:00 +12°C° 0 mm 1 m/S 751 mmHg 87%
    06:00 +13°C° 0 mm 1 m/S 751 mmHg 86%
    07:00 +14°C° 0.1 mm 1 m/S 752 mmHg 81%
    08:00 +16°C° 0.1 mm 1 m/S 752 mmHg 76%
    09:00 +19°C° 0.1 mm 1 m/S 752 mmHg 71%
    10:00 +19°C° 0.6 mm 1 m/S 752 mmHg 69%
    11:00 +19°C° 0.6 mm 2 m/S 752 mmHg 67%
    12:00 +20°C° 0.6 mm 2 m/S 751 mmHg 64%
    13:00 +20°C° 0.4 mm 2 m/S 751 mmHg 65%
    14:00 +20°C° 0.4 mm 3 m/S 751 mmHg 65%
    15:00 +20°C° 0.4 mm 3 m/S 751 mmHg 66%
    16:00 +19°C° 0.3 mm 3 m/S 751 mmHg 71%
    17:00 +19°C° 0.3 mm 3 m/S 751 mmHg 77%
    18:00 +18°C° 0.3 mm 2 m/S 751 mmHg 83%
    19:00 +16°C° 0 mm 2 m/S 752 mmHg 85%
    20:00 +15°C° 0 mm 2 m/S 752 mmHg 87%
    21:00 +13°C° 0 mm 2 m/S 752 mmHg 89%
    22:00 +12°C° 0 mm 2 m/S 752 mmHg 90%
    23:00 +10°C° 0 mm 2 m/S 752 mmHg 91%

    9 Juni, Dienstag

    Zeit Temperatur Niederschläge Wind Luftdruck Luftfeuchtigkeit
    00:00 +10°C° 0 mm 2 m/S 752 mmHg 92%
    01:00 +9°C° 0 mm 2 m/S 752 mmHg 92%
    02:00 +9°C° 0 mm 2 m/S 752 mmHg 92%
    03:00 +8°C° 0 mm 2 m/S 752 mmHg 93%
    04:00 +9°C° 0 mm 2 m/S 753 mmHg 91%
    05:00 +12°C° 0 mm 2 m/S 753 mmHg 89%
    06:00 +13°C° 0 mm 2 m/S 753 mmHg 87%
    07:00 +15°C° 0 mm 2 m/S 753 mmHg 81%
    08:00 +17°C° 0 mm 2 m/S 753 mmHg 74%
    09:00 +19°C° 0 mm 2 m/S 754 mmHg 68%
    10:00 +20°C° 0 mm 2 m/S 753 mmHg 65%
    11:00 +21°C° 0 mm 3 m/S 753 mmHg 61%
    12:00 +22°C° 0 mm 3 m/S 753 mmHg 57%
    13:00 +22°C° 0.3 mm 3 m/S 753 mmHg 61%
    14:00 +21°C° 0.3 mm 3 m/S 753 mmHg 64%
    15:00 +21°C° 0.3 mm 3 m/S 753 mmHg 67%
    16:00 +20°C° 0.4 mm 3 m/S 753 mmHg 73%
    17:00 +19°C° 0.4 mm 3 m/S 754 mmHg 79%
    18:00 +19°C° 0.4 mm 3 m/S 754 mmHg 86%
    19:00 +17°C° 0 mm 3 m/S 754 mmHg 88%
    20:00 +14°C° 0 mm 3 m/S 755 mmHg 90%
    21:00 +13°C° 0 mm 3 m/S 755 mmHg 93%
    22:00 +12°C° 0 mm 3 m/S 755 mmHg 94%
    23:00 +12°C° 0 mm 3 m/S 755 mmHg 94%

    10 Juni, Mittwoch

    Zeit Temperatur Niederschläge Wind Luftdruck Luftfeuchtigkeit
    00:00 +11°C° 0 mm 3 m/S 755 mmHg 95%
    01:00 +11°C° 0 mm 3 m/S 755 mmHg 96%
    02:00 +11°C° 0 mm 3 m/S 755 mmHg 96%
    03:00 +10°C° 0 mm 3 m/S 756 mmHg 97%
    04:00 +11°C° 0 mm 3 m/S 756 mmHg 96%
    05:00 +12°C° 0 mm 4 m/S 756 mmHg 95%
    06:00 +12°C° 0 mm 4 m/S 756 mmHg 94%
    07:00 +14°C° 0 mm 4 m/S 756 mmHg 89%
    08:00 +15°C° 0 mm 5 m/S 756 mmHg 84%
    09:00 +17°C° 0 mm 5 m/S 756 mmHg 78%
    10:00 +19°C° 0.1 mm 5 m/S 756 mmHg 74%
    11:00 +20°C° 0.1 mm 6 m/S 756 mmHg 70%
    12:00 +21°C° 0.1 mm 6 m/S 756 mmHg 67%
    13:00 +21°C° 0.5 mm 6 m/S 756 mmHg 69%
    14:00 +21°C° 0.5 mm 6 m/S 756 mmHg 72%
    15:00 +21°C° 0.5 mm 5 m/S 756 mmHg 75%
    16:00 +20°C° 0.4 mm 5 m/S 756 mmHg 78%
    17:00 +19°C° 0.4 mm 5 m/S 756 mmHg 80%
    18:00 +19°C° 0.4 mm 4 m/S 756 mmHg 82%
    19:00 +17°C° 0.1 mm 4 m/S 757 mmHg 83%
    20:00 +15°C° 0.1 mm 4 m/S 757 mmHg 85%
    21:00 +14°C° 0.1 mm 4 m/S 758 mmHg 86%
    22:00 +13°C° 0 mm 4 m/S 758 mmHg 87%
    23:00 +13°C° 0 mm 4 m/S 758 mmHg 89%
    Mehr zeigen